Regional Weather Roundup
Issued by NWS

Home | Current Version | Previous Version | Text Only | Print | Product List | Glossary Off
Versions: 1 2 3 4 5 6 7 8 9 10 11 12 13 14 15 16 17 18 19 20 21 22 23 24 25 26 27 28 29 30 31 32 33 34 35 36 37 38 39 40 41 42 43 44 45 46 47 48 49 50

000
ASUS43 KFSD 231910
RWRSD

WEATHER ROUNDUP FOR SOUTH DAKOTA
NATIONAL WEATHER SERVICE SIOUX FALLS SD
200 PM CDT THU MAR 23 2017

NOTE: "FAIR" INDICATES FEW OR NO CLOUDS BELOW 12,000 FEET WITH NO
SIGNIFICANT WEATHER AND/OR OBSTRUCTIONS TO VISIBILITY.


SDZ001>005-009-010-012>017-232000-
NORTHWEST AND NORTH CENTRAL SOUTH DAKOTA

CITY           SKY/WX    TMP DP  RH WIND       PRES   REMARKS
BUFFALO          N/A     46  42  86 N22       29.68F
FAITH            N/A     53  41  63 N9G18     29.65
MOBRIDGE       SUNNY     57  35  43 CALM      29.65S
$$

SDZ012>016-024>037-041>051-057-063-072>074-232000-
SOUTHWEST AND SOUTH CENTRAL SOUTH DAKOTA

CITY           SKY/WX    TMP DP  RH WIND       PRES   REMARKS
RAPID CTY ARPT SUNNY     61  41  47 N14G23    29.62F
PIERRE         SUNNY     58  39  49 MISG      29.61F
CUSTER         MOSUNNY   61  36  39 VRB6G18   29.65F
ELLSWORTH AFB  SUNNY     60  42  52 N17G26    29.62F
PHILIP         SUNNY     62  39  42 VRB5      29.59F
PINE RIDGE     CLOUDY    63  41  44 VRB3      29.59F
SPEARFISH      CLOUDY    45  43  93 NW14      29.72R
WINNER         CLOUDY    55  46  71 SW12      29.64F
$$

SDZ004>011-016>023-039-040-232000-
NORTHEAST SOUTH DAKOTA

CITY           SKY/WX    TMP DP  RH WIND       PRES   REMARKS
ABERDEEN       CLOUDY    43  30  60 S14       29.74F
WATERTOWN      CLOUDY    38  32  79 S14       29.76F
BROOKINGS      MIX PCPN  37  35  92 SE17      29.76F FOG
SISSETON         N/A     39  35  86 S10       29.79F
$$

SDZ017-020-022-023-036>040-048>070-232000-
SOUTHEAST SOUTH DAKOTA

CITY           SKY/WX    TMP DP  RH WIND       PRES   REMARKS
SIOUX FALLS    CLOUDY    45  41  86 SE12      29.76F
HURON          CLOUDY    46  35  65 SE16      29.70F
CHAMBERLAIN    CLOUDY    55  45  69 SE13      29.64F
MITCHELL       CLOUDY    48  37  65 SE16      29.70F
YANKTON        CLOUDY    54  45  71 SE14G22   29.72F
$$

ABBREVIATIONS USED IN REMARKS
   TC - TEMPERATURE IN CELSIUS
  WCI - WIND CHILL INDEX
   HX - HEAT INDEX
  VSB - VISIBILITY




USA.gov is the U.S. government's official web portal to all federal, state and local government web resources and services.